STARLINK-1791 (46692 NORAD) Tracking and Keplerian Element Data

This shows tracking and keplerian element data for the satellite.

Feedback or suggestion? Click here.




ElementValue
Catalog46692
NameSTARLINK-1791
Epoch Orbit733
Epoch Day336.25001157
Epoch Year2020
RAAN256.3214
Inclination53.0523
Eccentricity0.0001277
Argument of Perigee78.5989
Mean Anonmoly201.0117
Mean Motion15.25672871
Decay Rate-0.010626
L11 46692U 20073Y 20336.25001157 -.01062600 00000-0 -44944-1 0 9997
L22 46692 53.0523 256.3214 0001277 78.5989 201.0117 15.25672871 7332

Live tracking and technical data element details for STARLINK-1791 (NORAD 46692). STARLINK-1791 can be tracked NOW for your location showing map with azimuth and elevation plus other details from your city location.

Track the satellite on the map from your city or location and see movement details for azimuth, elevation, latitude, longitude, range, height, and movement on the map or in text.







IsCatalogInMostPopularTable: catalog: 46692, numindb: 10
Update: records affected: 1



GetName: 46692 STARLINK-1791

Hit Count: updated at: Wed, 02 Dec 2020 05:55:05 GMT